When you browse on this site, cookies collect data to enhance your experience and personalize the content and advertising you see.
Visit our Privacy Policy to learn more. By continuing to use the site, you agree to this use of cookies and data.

Hourly Weather Lautaro

Today, 9 July, Thursday

Time Temperature Precipitation Wind Pressure Humidity
00:00 +4°C° 0.3 mm 4 mps 742 mmHg 92%
01:00 +4°C° 0.3 mm 4 mps 742 mmHg 91%
02:00 +3°C° 0.5 mm 5 mps 741 mmHg 91%
03:00 +3°C° 0.5 mm 6 mps 741 mmHg 91%
04:00 +3°C° 0.5 mm 7 mps 740 mmHg 91%
05:00 +4°C° 2 mm 7 mps 740 mmHg 92%
06:00 +4°C° 2 mm 8 mps 739 mmHg 92%
07:00 +4°C° 2 mm 8 mps 738 mmHg 92%
08:00 +4°C° 4.1 mm 8 mps 738 mmHg 92%
09:00 +4°C° 4.1 mm 8 mps 738 mmHg 93%
10:00 +3°C° 4.1 mm 9 mps 737 mmHg 93%
11:00 +4°C° 4.4 mm 8 mps 737 mmHg 93%
12:00 +5°C° 4.4 mm 8 mps 736 mmHg 94%
13:00 +5°C° 4.4 mm 7 mps 735 mmHg 95%
14:00 +6°C° 6 mm 7 mps 735 mmHg 95%
15:00 +8°C° 6 mm 6 mps 735 mmHg 96%
16:00 +9°C° 6 mm 6 mps 734 mmHg 96%
17:00 +9°C° 3.5 mm 6 mps 734 mmHg 96%
18:00 +9°C° 3.5 mm 6 mps 734 mmHg 96%
19:00 +10°C° 3.5 mm 6 mps 734 mmHg 96%
20:00 +10°C° 2.3 mm 6 mps 734 mmHg 96%
21:00 +10°C° 2.3 mm 6 mps 733 mmHg 96%
22:00 +10°C° 2.3 mm 6 mps 733 mmHg 96%
23:00 +9°C° 1.4 mm 6 mps 734 mmHg 93%

Tomorrow, 10 July, Friday

Time Temperature Precipitation Wind Pressure Humidity
00:00 +9°C° 1.4 mm 5 mps 734 mmHg 91%
01:00 +9°C° 1.4 mm 5 mps 735 mmHg 89%
02:00 +8°C° 0.2 mm 4 mps 735 mmHg 91%
03:00 +8°C° 0.2 mm 3 mps 736 mmHg 92%
04:00 +7°C° 0.2 mm 3 mps 737 mmHg 94%
05:00 +6°C° 0.2 mm 2 mps 738 mmHg 94%
06:00 +6°C° 0.2 mm 2 mps 739 mmHg 94%
07:00 +6°C° 0.2 mm 1 mps 740 mmHg 94%
08:00 +7°C° 0.1 mm 1 mps 741 mmHg 89%
09:00 +8°C° 0.1 mm 1 mps 742 mmHg 84%
10:00 +8°C° 0.1 mm 0 mps 743 mmHg 80%
11:00 +9°C° 0.1 mm 1 mps 743 mmHg 78%
12:00 +10°C° 0.1 mm 1 mps 743 mmHg 76%
13:00 +10°C° 0.1 mm 1 mps 743 mmHg 74%
14:00 +10°C° 0.1 mm 1 mps 743 mmHg 77%
15:00 +9°C° 0.1 mm 1 mps 743 mmHg 81%
16:00 +9°C° 0.1 mm 1 mps 743 mmHg 85%
17:00 +7°C° 0 mm 0 mps 743 mmHg 87%
18:00 +6°C° 0 mm 0 mps 743 mmHg 89%
19:00 +5°C° 0 mm 0 mps 743 mmHg 91%
20:00 +4°C° 0 mm 0 mps 743 mmHg 92%
21:00 +4°C° 0 mm 0 mps 743 mmHg 92%
22:00 +4°C° 0 mm 0 mps 743 mmHg 93%
23:00 +3°C° 0 mm 0 mps 743 mmHg 93%

Day after tomorrow, 11 July, Saturday

Time Temperature Precipitation Wind Pressure Humidity
00:00 +4°C° 0 mm 1 mps 743 mmHg 93%
01:00 +4°C° 0 mm 1 mps 742 mmHg 93%
02:00 +4°C° 0 mm 1 mps 742 mmHg 92%
03:00 +5°C° 0 mm 1 mps 742 mmHg 92%
04:00 +4°C° 0 mm 2 mps 742 mmHg 91%
05:00 +4°C° 0 mm 2 mps 742 mmHg 91%
06:00 +5°C° 0 mm 2 mps 741 mmHg 91%
07:00 +4°C° 0 mm 3 mps 741 mmHg 91%
08:00 +4°C° 0 mm 3 mps 741 mmHg 89%
09:00 +4°C° 0 mm 4 mps 740 mmHg 87%
10:00 +5°C° 0 mm 4 mps 740 mmHg 85%
11:00 +5°C° 0.3 mm 5 mps 739 mmHg 86%
12:00 +5°C° 0.3 mm 5 mps 739 mmHg 87%
13:00 +4°C° 0.3 mm 6 mps 738 mmHg 88%
14:00 +5°C° 0.7 mm 6 mps 738 mmHg 90%
15:00 +5°C° 0.7 mm 6 mps 737 mmHg 92%
16:00 +6°C° 0.7 mm 5 mps 737 mmHg 94%
17:00 +7°C° 1.1 mm 5 mps 737 mmHg 94%
18:00 +7°C° 1.1 mm 5 mps 737 mmHg 95%
19:00 +8°C° 1.1 mm 5 mps 737 mmHg 96%
20:00 +8°C° 0.6 mm 5 mps 737 mmHg 96%
21:00 +8°C° 0.6 mm 5 mps 737 mmHg 96%
22:00 +9°C° 0.6 mm 5 mps 737 mmHg 96%
23:00 +9°C° 0.3 mm 5 mps 737 mmHg 95%

12 July, Sunday

Time Temperature Precipitation Wind Pressure Humidity
00:00 +9°C° 0.3 mm 5 mps 737 mmHg 95%
01:00 +9°C° 0.3 mm 5 mps 737 mmHg 95%
02:00 +9°C° 0.2 mm 5 mps 736 mmHg 95%
03:00 +9°C° 0.2 mm 5 mps 736 mmHg 94%
04:00 +10°C° 0.2 mm 5 mps 736 mmHg 94%
05:00 +10°C° 0.8 mm 5 mps 736 mmHg 95%
06:00 +10°C° 0.8 mm 5 mps 737 mmHg 95%
07:00 +10°C° 0.8 mm 5 mps 737 mmHg 96%
08:00 +11°C° 1.4 mm 4 mps 737 mmHg 96%
09:00 +11°C° 1.4 mm 4 mps 738 mmHg 96%
10:00 +11°C° 1.4 mm 4 mps 738 mmHg 97%
11:00 +10°C° 1.9 mm 3 mps 738 mmHg 97%
12:00 +10°C° 1.9 mm 2 mps 738 mmHg 97%
13:00 +9°C° 1.9 mm 2 mps 738 mmHg 97%
14:00 +10°C° 1 mm 1 mps 738 mmHg 97%
15:00 +9°C° 1 mm 1 mps 739 mmHg 97%
16:00 +9°C° 1 mm 1 mps 739 mmHg 97%
17:00 +9°C° 0.7 mm 1 mps 739 mmHg 97%
18:00 +8°C° 0.7 mm 1 mps 740 mmHg 97%
19:00 +8°C° 0.7 mm 1 mps 740 mmHg 97%
20:00 +8°C° 0.3 mm 1 mps 740 mmHg 96%
21:00 +7°C° 0.3 mm 0 mps 741 mmHg 96%
22:00 +7°C° 0.3 mm 0 mps 741 mmHg 96%
23:00 +7°C° 0.1 mm 0 mps 741 mmHg 95%

13 July, Monday

Time Temperature Precipitation Wind Pressure Humidity
00:00 +7°C° 0.1 mm 0 mps 741 mmHg 95%
01:00 +7°C° 0.1 mm 0 mps 741 mmHg 95%
02:00 +7°C° 0 mm 0 mps 741 mmHg 95%
03:00 +7°C° 0 mm 0 mps 741 mmHg 95%
04:00 +7°C° 0 mm 0 mps 741 mmHg 95%
05:00 +7°C° 0 mm 0 mps 741 mmHg 95%
06:00 +7°C° 0 mm 0 mps 741 mmHg 95%
07:00 +7°C° 0 mm 0 mps 741 mmHg 95%
08:00 +8°C° 0 mm 0 mps 742 mmHg 94%
09:00 +9°C° 0 mm 0 mps 742 mmHg 92%
10:00 +10°C° 0 mm 0 mps 742 mmHg 90%
11:00 +12°C° 0 mm 0 mps 742 mmHg 87%
12:00 +13°C° 0 mm 0 mps 741 mmHg 84%
13:00 +15°C° 0 mm 1 mps 741 mmHg 81%
14:00 +14°C° 0 mm 1 mps 741 mmHg 84%
15:00 +14°C° 0 mm 1 mps 741 mmHg 87%
16:00 +13°C° 0 mm 1 mps 741 mmHg 90%
17:00 +12°C° 0 mm 1 mps 741 mmHg 92%
18:00 +10°C° 0 mm 1 mps 741 mmHg 93%
19:00 +9°C° 0 mm 1 mps 741 mmHg 95%
20:00 +9°C° 0 mm 1 mps 741 mmHg 95%
21:00 +9°C° 0 mm 1 mps 741 mmHg 94%
22:00 +7°C° 0 mm 0 mps 741 mmHg 94%
23:00 +7°C° 0 mm 0 mps 741 mmHg 94%

14 July, Tuesday

Time Temperature Precipitation Wind Pressure Humidity
00:00 +7°C° 0 mm 0 mps 740 mmHg 94%
01:00 +6°C° 0 mm 0 mps 740 mmHg 93%
02:00 +6°C° 0 mm 0 mps 740 mmHg 94%
03:00 +6°C° 0 mm 0 mps 740 mmHg 94%
04:00 +6°C° 0 mm 0 mps 740 mmHg 94%
05:00 +6°C° 0 mm 0 mps 740 mmHg 94%
06:00 +6°C° 0 mm 0 mps 740 mmHg 94%
07:00 +5°C° 0 mm 0 mps 740 mmHg 94%
08:00 +7°C° 0 mm 0 mps 740 mmHg 90%
09:00 +9°C° 0 mm 0 mps 740 mmHg 87%
10:00 +12°C° 0 mm 1 mps 741 mmHg 83%
11:00 +13°C° 0 mm 1 mps 740 mmHg 80%
12:00 +14°C° 0 mm 1 mps 740 mmHg 78%
13:00 +15°C° 0 mm 1 mps 739 mmHg 75%
14:00 +14°C° 0 mm 1 mps 739 mmHg 79%
15:00 +14°C° 0 mm 1 mps 739 mmHg 83%
16:00 +13°C° 0 mm 1 mps 739 mmHg 86%
17:00 +12°C° 0 mm 1 mps 739 mmHg 89%
18:00 +11°C° 0 mm 1 mps 739 mmHg 92%
19:00 +10°C° 0 mm 1 mps 738 mmHg 95%
20:00 +10°C° 0 mm 1 mps 739 mmHg 94%
21:00 +10°C° 0 mm 1 mps 739 mmHg 93%
22:00 +10°C° 0 mm 1 mps 739 mmHg 92%
23:00 +10°C° 0 mm 1 mps 738 mmHg 92%
Show more